| time (UTC) | temp F | wind direction | speed knots | gust knots | rain 1hr in | rain 24hr in | rain mn in | humidity % | barometer mb |
| 20260506091549 | 58 | 77 | 0.0 | 0.9 | 0.00 | 0.00 | 0.00 | 88 | 1006.0 |
| 20260506090404 | 58 | 333 | 0.9 | 1.7 | 0.00 | 0.00 | 0.00 | 88 | 1006.0 |
| 20260506085204 | 59 | 0.0 | 0.0 | 0.00 | 0.00 | 0.00 | 85 | 1005.8 | |
| 20260506084019 | 59 | 179 | 0.0 | 0.9 | 0.00 | 0.00 | 0.00 | 85 | 1005.8 |
| 20260506082732 | 59 | 0.0 | 0.0 | 0.00 | 0.00 | 0.00 | 86 | 1005.9 | |
| 20260506081619 | 59 | 0.0 | 0.0 | 0.00 | 0.00 | 0.00 | 85 | 1005.9 | |
| 20260506080332 | 59 | 0.0 | 0.0 | 0.00 | 0.00 | 0.00 | 85 | 1006.1 | |
| 20260506072804 | 60 | 0.0 | 0.0 | 0.00 | 0.00 | 0.00 | 81 | 1006.0 | |
| 20260506071621 | 60 | 0.0 | 0.0 | 0.00 | 0.00 | 0.00 | 79 | 1006.0 | |
| 20260506070332 | 59 | 0.0 | 0.0 | 0.00 | 0.00 | 0.00 | 82 | 1006.1 | |
| 20260506061604 | 59 | 0.0 | 0.0 | 0.00 | 0.00 | 0.00 | 82 | 1006.4 | |
| 20260506060317 | 59 | 0.0 | 0.0 | 0.00 | 0.00 | 0.00 | 83 | 1006.5 | |
| 20260506050348 | 60 | 0.0 | 0.0 | 0.00 | 0.00 | 0.00 | 80 | 1007.2 | |
| 20260506044020 | 58 | 0.0 | 0.0 | 0.00 | 0.00 | 0.00 | 84 | 1007.3 | |
| 20260506042749 | 58 | 0.0 | 0.0 | 0.00 | 0.00 | 0.00 | 83 | 1007.3 | |
| 20260506041604 | 59 | 0.0 | 0.0 | 0.00 | 0.00 | 0.00 | 82 | 1007.2 | |
| 20260506040317 | 59 | 0.0 | 0.0 | 0.00 | 0.00 | 0.00 | 81 | 1006.9 | |
| 20260506035116 | 60 | 0.0 | 0.0 | 0.00 | 0.00 | 0.00 | 80 | 1007.1 | |
| 20260506033932 | 60 | 0.0 | 0.0 | 0.00 | 0.00 | 0.00 | 80 | 1007.2 | |
| 20260506032717 | 61 | 0.0 | 0.0 | 0.00 | 0.00 | 0.00 | 78 | 1007.2 | |
| 20260506031532 | 61 | 0.0 | 0.0 | 0.00 | 0.00 | 0.00 | 78 | 1007.3 | |
| 20260506030348 | 60 | 0.0 | 0.0 | 0.00 | 0.00 | 0.00 | 79 | 1007.3 | |
| 20260506025205 | 60 | 0.0 | 0.0 | 0.00 | 0.00 | 0.00 | 78 | 1007.3 | |
| 20260506024020 | 60 | 0.0 | 0.0 | 0.00 | 0.00 | 0.00 | 78 | 1007.4 | |
| 20260506022748 | 61 | 0.0 | 0.0 | 0.00 | 0.00 | 0.00 | 75 | 1007.2 | |
| 20260506021549 | 63 | 0.0 | 0.0 | 0.00 | 0.00 | 0.00 | 73 | 1007.2 | |
| 20260506020349 | 64 | 0.0 | 0.0 | 0.00 | 0.00 | 0.00 | 70 | 1007.3 | |
| 20260506015148 | 64 | 0.0 | 0.0 | 0.00 | 0.00 | 0.00 | 70 | 1007.3 | |
| 20260506014005 | 65 | 0.0 | 0.0 | 0.00 | 0.00 | 0.00 | 69 | 1007.1 | |
| 20260506012717 | 66 | 0.0 | 0.0 | 0.00 | 0.00 | 0.00 | 66 | 1007.1 | |
| 20260506011634 | 67 | 0.0 | 0.0 | 0.00 | 0.00 | 0.00 | 64 | 1007.1 | |
| 20260506010348 | 68 | 0.0 | 0.0 | 0.00 | 0.00 | 0.00 | 64 | 1007.1 | |
| 20260506005149 | 69 | 0.0 | 0.0 | 0.00 | 0.00 | 0.00 | 62 | 1006.8 | |
| 20260506004005 | 69 | 178 | 0.0 | 0.9 | 0.00 | 0.00 | 0.00 | 61 | 1006.7 |
| 20260506002717 | 70 | 0.0 | 0.0 | 0.00 | 0.00 | 0.00 | 60 | 1006.6 | |
| 20260506001532 | 70 | 0.0 | 0.0 | 0.00 | 0.00 | 0.00 | 59 | 1006.4 | |
| 20260506000349 | 71 | 207 | 0.9 | 0.9 | 0.00 | 0.00 | 0.00 | 58 | 1006.4 |
| 20260505235206 | 72 | 0.0 | 0.0 | 0.00 | 0.00 | 0.00 | 57 | 1006.2 | |
| 20260505233957 | 72 | 0.0 | 0.0 | 0.00 | 0.00 | 0.00 | 55 | 1006.3 | |
| 20260505232732 | 73 | 212 | 0.9 | 0.9 | 0.00 | 0.00 | 0.00 | 54 | 1006.1 |
| 20260505231549 | 73 | 278 | 1.7 | 4.3 | 0.00 | 0.00 | 0.00 | 52 | 1006.0 |
| 20260505230406 | 74 | 233 | 0.9 | 1.7 | 0.00 | 0.00 | 0.00 | 51 | 1006.0 |
| 20260505225205 | 74 | 209 | 3.5 | 5.2 | 0.00 | 0.00 | 0.00 | 51 | 1005.9 |
| 20260505223938 | 74 | 247 | 1.7 | 5.2 | 0.00 | 0.00 | 0.00 | 50 | 1005.8 |
| 20260505222733 | 75 | 298 | 3.5 | 8.7 | 0.00 | 0.00 | 0.00 | 49 | 1005.7 |
| 20260505221548 | 76 | 299 | 2.6 | 5.2 | 0.00 | 0.00 | 0.00 | 46 | 1005.7 |
| 20260505220405 | 78 | 285 | 5.2 | 7.8 | 0.00 | 0.00 | 0.00 | 41 | 1005.6 |
| 20260505215116 | 78 | 249 | 3.5 | 6.1 | 0.00 | 0.00 | 0.00 | 40 | 1005.3 |
| 20260505213933 | 78 | 245 | 1.7 | 2.6 | 0.00 | 0.00 | 0.00 | 39 | 1005.3 |
| 20260505212748 | 79 | 272 | 2.6 | 5.2 | 0.00 | 0.00 | 0.00 | 38 | 1005.1 |
| 20260505211537 | 80 | 223 | 3.5 | 7.0 | 0.00 | 0.00 | 0.00 | 37 | 1004.9 |
| 20260505210334 | 80 | 260 | 2.6 | 4.3 | 0.00 | 0.00 | 0.00 | 37 | 1004.9 |
| 20260505205149 | 79 | 238 | 3.5 | 6.1 | 0.00 | 0.00 | 0.00 | 37 | 1005.0 |
| 20260505204004 | 79 | 227 | 2.6 | 4.3 | 0.00 | 0.00 | 0.00 | 38 | 1005.2 |
| 20260505202845 | 78 | 213 | 4.3 | 8.7 | 0.00 | 0.00 | 0.00 | 38 | 1005.1 |
| 20260505201516 | 79 | 250 | 6.1 | 7.8 | 0.00 | 0.00 | 0.00 | 37 | 1005.2 |
| 20260505200317 | 79 | 226 | 5.2 | 7.0 | 0.00 | 0.00 | 0.00 | 36 | 1005.1 |
| 20260505195118 | 80 | 238 | 7.0 | 12.2 | 0.00 | 0.00 | 0.00 | 36 | 1004.9 |
| 20260505194006 | 80 | 211 | 8.7 | 12.2 | 0.00 | 0.00 | 0.00 | 38 | 1005.0 |
| 20260505192738 | 80 | 229 | 6.1 | 8.7 | 0.00 | 0.00 | 0.00 | 37 | 1005.0 |
| 20260505191533 | 80 | 242 | 6.1 | 11.3 | 0.00 | 0.00 | 0.00 | 39 | 1005.0 |
| 20260505190348 | 82 | 230 | 7.0 | 11.3 | 0.00 | 0.00 | 0.00 | 37 | 1005.0 |
| 20260505185206 | 80 | 171 | 4.3 | 7.8 | 0.00 | 0.00 | 0.00 | 43 | 1005.3 |
| 20260505183917 | 80 | 228 | 4.3 | 7.8 | 0.00 | 0.00 | 0.00 | 41 | 1005.4 |
| 20260505182734 | 81 | 237 | 6.1 | 8.7 | 0.00 | 0.00 | 0.00 | 41 | 1005.7 |
| 20260505181533 | 80 | 201 | 7.0 | 14.8 | 0.00 | 0.00 | 0.00 | 40 | 1005.9 |
| 20260505180350 | 79 | 231 | 6.1 | 12.2 | 0.00 | 0.00 | 0.00 | 42 | 1006.1 |
| 20260505175149 | 80 | 245 | 5.2 | 8.7 | 0.00 | 0.00 | 0.00 | 42 | 1006.4 |
| 20260505173934 | 80 | 239 | 5.2 | 11.3 | 0.00 | 0.00 | 0.00 | 42 | 1006.4 |
| 20260505172733 | 80 | 253 | 6.1 | 11.3 | 0.00 | 0.00 | 0.00 | 43 | 1006.3 |
| 20260505171551 | 79 | 219 | 5.2 | 9.6 | 0.00 | 0.00 | 0.00 | 43 | 1006.3 |
| 20260505170334 | 79 | 248 | 5.2 | 8.7 | 0.00 | 0.00 | 0.00 | 44 | 1006.4 |
| 20260505165116 | 78 | 232 | 7.8 | 11.3 | 0.00 | 0.00 | 0.00 | 44 | 1006.6 |
| 20260505163934 | 78 | 251 | 7.0 | 12.2 | 0.00 | 0.00 | 0.00 | 45 | 1006.8 |
| 20260505162750 | 78 | 247 | 5.2 | 9.6 | 0.00 | 0.00 | 0.00 | 45 | 1007.0 |
| 20260505161605 | 78 | 269 | 3.5 | 7.0 | 0.00 | 0.00 | 0.00 | 45 | 1007.2 |
| 20260505160318 | 78 | 240 | 6.1 | 9.6 | 0.00 | 0.00 | 0.00 | 47 | 1007.2 |
| 20260505152749 | 76 | 260 | 6.1 | 9.6 | 0.00 | 0.00 | 0.00 | 50 | 1007.6 |
| 20260505151606 | 75 | 210 | 4.3 | 7.8 | 0.00 | 0.00 | 0.00 | 51 | 1007.8 |
| 20260505150317 | 74 | 234 | 7.8 | 13.0 | 0.00 | 0.00 | 0.00 | 51 | 1007.9 |
| 20260505140318 | 71 | 208 | 5.2 | 7.0 | 0.00 | 0.00 | 0.00 | 58 | 1007.8 |
| 20260505123949 | 63 | 220 | 0.9 | 1.7 | 0.00 | 0.00 | 0.00 | 72 | 1008.6 |
| 20260505122806 | 62 | 217 | 1.7 | 2.6 | 0.00 | 0.00 | 0.00 | 71 | 1008.7 |
| 20260505121538 | 62 | 228 | 2.6 | 5.2 | 0.00 | 0.00 | 0.00 | 71 | 1008.7 |
| 20260505120333 | 62 | 216 | 1.7 | 4.3 | 0.00 | 0.00 | 0.00 | 70 | 1008.5 |
| 20260505115150 | 61 | 208 | 1.7 | 2.6 | 0.00 | 0.00 | 0.00 | 72 | 1008.5 |
| 20260505114005 | 61 | 214 | 0.9 | 0.9 | 0.00 | 0.00 | 0.00 | 73 | 1008.3 |
| 20260505112718 | 60 | 176 | 0.9 | 2.6 | 0.00 | 0.00 | 0.00 | 74 | 1008.2 |
| 20260505111533 | 59 | 215 | 0.0 | 0.9 | 0.00 | 0.00 | 0.00 | 75 | 1008.2 |
| 20260505110351 | 58 | 0.0 | 0.0 | 0.00 | 0.00 | 0.00 | 75 | 1007.9 | |
| 20260505101534 | 59 | 0.0 | 0.0 | 0.00 | 0.00 | 0.00 | 74 | 1008.0 | |
| 20260505100349 | 60 | 216 | 1.7 | 1.7 | 0.00 | 0.00 | 0.00 | 72 | 1007.9 |
| 20260505095151 | 60 | 209 | 2.6 | 5.2 | 0.00 | 0.00 | 0.00 | 71 | 1007.6 |
| 20260505093934 | 60 | 212 | 2.6 | 4.3 | 0.00 | 0.00 | 0.00 | 71 | 1007.5 |
| 20260505092733 | 60 | 233 | 1.7 | 1.7 | 0.00 | 0.00 | 0.00 | 71 | 1007.3 |